Wilmington, DE

4:28 AM EST on November 14, 2019 (GMT -0500)
New Castle County

Weather History for KILG - August, 2019

Change the Weather History Date:

Monday, August 12, 2019

  Actual Average Record
Temperature  
Mean Temperature 75 °F 76 °F  
Max Temperature 88 °F 85 °F 102 °F (1896)
Min Temperature 61 °F 67 °F 50 °F (1930)
Degree Days  
Heating Degree Days 0 0  
Month to date heating degree days 0 0  
Since 1 June heating degree days 5 15  
Since 1 July heating degree days 0 0  
Cooling Degree Days 10 11  
Month to date cooling degree days 154 134  
Year to date cooling degree days 1016 811  
Since 1 June cooling degree days 884 732  
Growing Degree Days 24 (Base 50)    
Moisture  
Dew Point 64 °F    
Average Humidity 67    
Maximum Humidity 93    
Minimum Humidity 40    
Precipitation  
Precipitation 0.00 in 0.11 in 2.95 in (1955)
Month to date precipitation 0.91 1.37  
Year to date precipitation 34.37 26.88  
Snow  
Snow 0.00 in 0.00 in 0.00 in (1894)
Month to date snowfall 0.0 0.0  
Since 1 June snowfall 0.0 0.0  
Since 1 July snowfall 0.0 0.0  
Snow Depth 0.00 in    
Sea Level Pressure  
Sea Level Pressure 29.97 in    
Wind  
Wind Speed 6 mph (SSW)    
Max Wind Speed 18 mph    
Max Gust Speed 23 mph    
Visibility 10 miles    
Events      
T = Trace of Precipitation, MM = Missing Value Source: NWS Daily Summary

Daily Weather History Graph

Daily Weather History Graph

Search for Another Location

Airport or City:

Astronomy

Aug. 12, 2019 Rise Set
Actual Time 6:11 AM EDT 8:02 PM EDT
Civil Twilight 5:42 AM EDT 8:31 PM EDT
Nautical Twilight 5:07 AM EDT 9:07 PM EDT
Astronomical Twilight 4:28 AM EDT 9:44 PM EDT
Moon 6:30 PM EDT (8/12) 3:19 AM EDT (8/12)
Length of Visible Light 14h 49m
Length of Day
13h 51m
Waxing Gibbous, 93% of the Moon is Illuminated
Aug 12
Waxing Gibbous
Aug 15
Full
Aug 23
Last Quarter
Aug 30
New
Sep 5
First Quarter

Hourly Weather History & Observations

Time (EDT) Temp. Heat Index Dew Point Humidity Pressure Visibility Wind Dir Wind Speed Gust Speed Precip Events Conditions
12:51 AM 64.0 °F - 62.1 °F 93% 30.03 in 10.0 mi Calm Calm - N/A   Clear
1:51 AM 63.0 °F - 60.1 °F 90% 30.03 in 10.0 mi NW 3.5 mph - N/A   Clear
2:51 AM 64.0 °F - 60.1 °F 87% 30.03 in 10.0 mi Calm Calm - N/A   Clear
3:51 AM 62.1 °F - 61.0 °F 96% 30.03 in 10.0 mi NNW 4.6 mph - N/A   Clear
4:51 AM 62.1 °F - 59.0 °F 90% 30.03 in 10.0 mi NNW 3.5 mph - N/A   Clear
5:51 AM 63.0 °F - 59.0 °F 87% 30.03 in 10.0 mi Calm Calm - N/A   Clear
6:51 AM 64.0 °F - 59.0 °F 84% 30.03 in 10.0 mi Calm Calm - N/A   Unknown
7:51 AM 69.1 °F - 61.0 °F 75% 30.04 in 10.0 mi Calm Calm - N/A   Clear
8:51 AM 73.9 °F - 64.0 °F 71% 30.04 in 10.0 mi Calm Calm - N/A   Clear
9:51 AM 79.0 °F - 64.9 °F 62% 30.03 in 10.0 mi Variable 5.8 mph - N/A   Clear
10:51 AM 82.0 °F 83.8 °F 64.9 °F 56% 30.01 in 10.0 mi Variable 5.8 mph - N/A   Clear
11:51 AM 82.9 °F 84.0 °F 63.0 °F 51% 30.01 in 10.0 mi Variable 6.9 mph - N/A   Partly Cloudy
12:51 PM 86.0 °F 86.1 °F 61.0 °F 43% 30.00 in 10.0 mi WSW 8.1 mph - N/A   Clear
1:51 PM 87.1 °F 87.0 °F 61.0 °F 41% 29.97 in 10.0 mi West 10.4 mph - N/A   Clear
2:51 PM 87.1 °F 87.5 °F 62.1 °F 43% 29.95 in 10.0 mi SW 9.2 mph - N/A   Partly Cloudy
3:51 PM 86.0 °F 87.6 °F 64.9 °F 49% 29.94 in 10.0 mi SSW 13.8 mph - N/A   Mostly Cloudy
4:51 PM 86.0 °F 87.3 °F 64.0 °F 48% 29.91 in 10.0 mi South 11.5 mph - N/A   Partly Cloudy
5:14 PM 84.0 °F 87.8 °F 69.1 °F 61% 29.90 in 10.0 mi SSE 15.0 mph - N/A   Partly Cloudy
5:51 PM 82.0 °F 84.9 °F 68.0 °F 62% 29.90 in 10.0 mi SSE 15.0 mph - N/A   Partly Cloudy
6:51 PM 82.0 °F 84.9 °F 68.0 °F 62% 29.90 in 10.0 mi SSE 11.5 mph - N/A   Partly Cloudy
7:51 PM 79.0 °F - 69.1 °F 72% 29.91 in 10.0 mi SE 9.2 mph - N/A   Clear
8:51 PM 78.1 °F - 70.0 °F 76% 29.89 in 10.0 mi SSE 8.1 mph - N/A   Clear
9:51 PM 78.1 °F - 72.0 °F 81% 29.90 in 10.0 mi South 5.8 mph - N/A   Clear
10:51 PM 78.1 °F - 69.1 °F 74% 29.89 in 10.0 mi South 6.9 mph - N/A   Clear
11:51 PM 77.0 °F - 69.1 °F 76% 29.89 in 10.0 mi South 9.2 mph - N/A   Clear